Location: Bruderhein
(53.8035°N, 112.9265°W)
Time: 18:19:51
(UTC+00:00)

Max Valier Satellite - Pass Details

Date: 04 April 2023
Orbit: 445 x 458 km, 97.2° (Epoch: 31 May)

Event Time Altitude Azimuth Distance (km) Brightness Sun altitude
Rises 03:48:06 0° 204° (SSW) 2,443 ? -14.1°
Reaches altitude 10° 03:50:37 10° 225° (SW) 1,582 ? -14.5°
Maximum altitude 03:52:59 18° 269° (W) 1,203 ? -14.8°
Drops below altitude 10° 03:55:22 10° 313° (NW) 1,602 ? -15.1°
Sets 03:57:56 0° 334° (NNW) 2,488 ? -15.4°
